Year,Month,Day,Hour,Minute,Value (Times are PST for temperature in C)
2012,06,01,00,02,13.00
2012,06,01,00,04,12.90
2012,06,01,00,05,12.90
2012,06,01,00,06,12.90
2012,06,01,00,07,12.90
2012,06,01,00,08,12.90
2012,06,01,00,10,12.80
2012,06,01,00,11,12.80
2012,06,01,00,12,12.80
2012,06,01,00,13,12.80
2012,06,01,00,14,12.80
2012,06,01,00,15,12.80
2012,06,01,00,16,12.80
2012,06,01,00,17,12.80
2012,06,01,00,18,12.80
2012,06,01,00,19,12.80
2012,06,01,00,20,12.70
2012,06,01,00,21,12.70
2012,06,01,00,22,12.70
2012,06,01,00,24,12.70
2012,06,01,00,25,12.70
2012,06,01,00,26,12.70
2012,06,01,00,27,12.70
2012,06,01,00,28,12.70
2012,06,01,00,29,12.60
2012,06,01,00,30,12.60
2012,06,01,00,31,12.60
2012,06,01,00,32,12.60
2012,06,01,00,33,12.60
2012,06,01,00,34,12.60
2012,06,01,00,35,12.60
2012,06,01,00,37,12.60
2012,06,01,00,38,12.60
2012,06,01,00,39,12.60
2012,06,01,00,40,12.60
2012,06,01,00,41,12.60
2012,06,01,00,42,12.60
2012,06,01,00,43,12.60
2012,06,01,00,44,12.60
2012,06,01,00,45,12.50
2012,06,01,00,47,12.50
2012,06,01,00,48,12.50
2012,06,01,00,49,12.50
2012,06,01,00,50,12.50
2012,06,01,00,52,12.40
2012,06,01,00,53,12.40
2012,06,01,00,54,12.40
2012,06,01,00,55,12.40
2012,06,01,00,56,12.40
2012,06,01,00,57,12.40
2012,06,01,00,58,12.40
2012,06,01,00,59,12.40
2012,06,01,01,00,12.40
2012,06,01,01,01,12.40
2012,06,01,01,02,12.40
2012,06,01,01,03,12.40
2012,06,01,01,05,12.40
2012,06,01,01,06,12.40
2012,06,01,01,07,12.30
2012,06,01,01,09,12.30
2012,06,01,01,10,12.30
2012,06,01,01,11,12.30
2012,06,01,01,12,12.30
2012,06,01,01,14,12.30
2012,06,01,01,15,12.30
2012,06,01,01,16,12.30
2012,06,01,01,17,12.30
2012,06,01,01,19,12.30
2012,06,01,01,20,12.30
2012,06,01,01,21,12.30
2012,06,01,01,23,12.30
2012,06,01,01,24,12.30
2012,06,01,01,25,12.30
2012,06,01,01,26,12.30
2012,06,01,01,28,12.30
2012,06,01,01,29,12.30
2012,06,01,01,30,12.30
2012,06,01,01,31,12.30
2012,06,01,01,32,12.20
2012,06,01,01,33,12.20
2012,06,01,01,34,12.20
2012,06,01,01,35,12.20
2012,06,01,01,36,12.20
2012,06,01,01,37,12.20
2012,06,01,01,38,12.20
2012,06,01,01,39,12.20
2012,06,01,01,40,12.20
2012,06,01,01,41,12.20
2012,06,01,01,43,12.20
2012,06,01,01,44,12.20
2012,06,01,01,45,12.10
2012,06,01,01,47,12.10
2012,06,01,01,48,12.10
2012,06,01,01,49,12.10
2012,06,01,01,50,12.00
2012,06,01,01,52,12.00
2012,06,01,01,53,11.90
2012,06,01,01,54,11.90
2012,06,01,01,55,11.90
2012,06,01,01,57,11.90
2012,06,01,01,58,11.90
2012,06,01,01,59,11.90
2012,06,01,02,00,11.90
2012,06,01,02,02,11.90
2012,06,01,02,03,11.90
2012,06,01,02,04,11.90
2012,06,01,02,05,11.90
2012,06,01,02,06,11.90
2012,06,01,02,07,11.90
2012,06,01,02,08,11.90
2012,06,01,02,09,11.90
2012,06,01,02,10,12.00
2012,06,01,02,11,12.00
2012,06,01,02,13,12.00
2012,06,01,02,14,12.10
2012,06,01,02,15,12.10
2012,06,01,02,16,12.10
2012,06,01,02,18,12.10
2012,06,01,02,19,12.10
2012,06,01,02,20,12.10
2012,06,01,02,21,12.10
2012,06,01,02,23,12.10
2012,06,01,02,24,12.10
2012,06,01,02,25,12.10
2012,06,01,02,27,12.00
2012,06,01,02,28,12.00
2012,06,01,02,29,12.00
2012,06,01,02,30,12.00
2012,06,01,02,31,12.00
2012,06,01,02,33,11.90
2012,06,01,02,34,11.90
2012,06,01,02,35,11.90
2012,06,01,02,36,11.90
2012,06,01,02,37,11.90
2012,06,01,02,38,11.90
2012,06,01,02,39,11.90
2012,06,01,02,40,11.90
2012,06,01,02,42,12.00
2012,06,01,02,43,12.00
2012,06,01,02,44,12.00
2012,06,01,02,45,12.00
2012,06,01,02,47,12.00
2012,06,01,02,48,12.00
2012,06,01,02,49,12.00
2012,06,01,02,50,12.00
2012,06,01,02,51,12.10
2012,06,01,02,52,12.10
2012,06,01,02,53,12.10
2012,06,01,02,54,12.10
2012,06,01,02,56,12.10
2012,06,01,02,57,12.10
2012,06,01,02,58,12.10
2012,06,01,02,59,12.10
2012,06,01,03,01,12.10
2012,06,01,03,02,12.10
2012,06,01,03,03,12.20
2012,06,01,03,05,12.10
2012,06,01,03,06,12.20
2012,06,01,03,07,12.20
2012,06,01,03,08,12.20
2012,06,01,03,10,12.20
2012,06,01,03,11,12.20
2012,06,01,03,12,12.10
2012,06,01,03,13,12.10
2012,06,01,03,14,12.20
2012,06,01,03,16,12.20
2012,06,01,03,17,12.20
2012,06,01,03,18,12.20
2012,06,01,03,19,12.20
2012,06,01,03,21,12.20
2012,06,01,03,22,12.20
2012,06,01,03,23,12.20
2012,06,01,03,24,12.20
2012,06,01,03,25,12.20
2012,06,01,03,27,12.20
2012,06,01,03,28,12.20
2012,06,01,03,29,12.20
2012,06,01,03,30,12.20
2012,06,01,03,32,12.20
2012,06,01,03,33,12.20
2012,06,01,03,34,12.20
2012,06,01,03,35,12.20
2012,06,01,03,37,12.20
2012,06,01,03,38,12.20
2012,06,01,03,39,12.20
2012,06,01,03,40,12.20
2012,06,01,03,41,12.20
2012,06,01,03,43,12.20
2012,06,01,03,44,12.20
2012,06,01,03,45,12.30
2012,06,01,03,47,12.30
2012,06,01,03,48,12.30
2012,06,01,03,49,12.30
2012,06,01,03,50,12.30
2012,06,01,03,52,12.30
2012,06,01,03,53,12.30
2012,06,01,03,54,12.30
2012,06,01,03,56,12.30
2012,06,01,03,57,12.30
2012,06,01,03,58,12.30
2012,06,01,04,00,12.30
2012,06,01,04,01,12.30
2012,06,01,04,02,12.30
2012,06,01,04,03,12.30
2012,06,01,04,05,12.40
2012,06,01,04,06,12.40
2012,06,01,04,07,12.40
2012,06,01,04,08,12.50
2012,06,01,04,10,12.50
2012,06,01,04,11,12.60
2012,06,01,04,12,12.60
2012,06,01,04,13,12.60
2012,06,01,04,14,12.60
2012,06,01,04,15,12.70
2012,06,01,04,16,12.70
2012,06,01,04,17,12.70
2012,06,01,04,19,12.70
2012,06,01,04,20,12.70
2012,06,01,04,21,12.70
2012,06,01,04,22,12.70
2012,06,01,04,23,12.70
2012,06,01,04,25,12.70
2012,06,01,04,26,12.70
2012,06,01,04,27,12.70
2012,06,01,04,29,12.70
2012,06,01,04,30,12.70
2012,06,01,04,31,12.70
2012,06,01,04,32,12.70
2012,06,01,04,33,12.70
2012,06,01,04,34,12.70
2012,06,01,04,35,12.70
2012,06,01,04,36,12.70
2012,06,01,04,37,12.70
2012,06,01,04,38,12.70
2012,06,01,04,39,12.70
2012,06,01,04,40,12.70
2012,06,01,04,41,12.70
2012,06,01,04,42,12.70
2012,06,01,04,43,12.60
2012,06,01,04,44,12.60
2012,06,01,04,45,12.60
2012,06,01,04,46,12.60
2012,06,01,04,47,12.60
2012,06,01,04,48,12.60
2012,06,01,04,49,12.60
2012,06,01,04,50,12.60
2012,06,01,04,51,12.60
2012,06,01,04,52,12.60
2012,06,01,04,53,12.60
2012,06,01,04,55,12.60
2012,06,01,04,56,12.50
2012,06,01,04,57,12.50
2012,06,01,04,58,12.50
2012,06,01,05,00,12.50
2012,06,01,05,01,12.50
2012,06,01,05,02,12.50
2012,06,01,05,03,12.40
2012,06,01,05,04,12.40
2012,06,01,05,06,12.40
2012,06,01,05,07,12.40
2012,06,01,05,08,12.40
2012,06,01,05,09,12.40
2012,06,01,05,10,12.40
2012,06,01,05,11,12.40
2012,06,01,05,12,12.40
2012,06,01,05,13,12.40
2012,06,01,05,15,12.40
2012,06,01,05,16,12.40
2012,06,01,05,17,12.40
2012,06,01,05,18,12.40
2012,06,01,05,19,12.40
2012,06,01,05,20,12.40
2012,06,01,05,21,12.30
2012,06,01,05,22,12.30
2012,06,01,05,23,12.30
2012,06,01,05,25,12.30
2012,06,01,05,26,12.30
2012,06,01,05,27,12.30
2012,06,01,05,28,12.30
2012,06,01,05,30,12.30
2012,06,01,05,31,12.30
2012,06,01,05,32,12.30
2012,06,01,05,33,12.30
2012,06,01,05,34,12.20
2012,06,01,05,36,12.20
2012,06,01,05,37,12.20
2012,06,01,05,38,12.20
2012,06,01,05,39,12.20
2012,06,01,05,40,12.20
2012,06,01,05,41,12.20
2012,06,01,05,42,12.20
2012,06,01,05,43,12.10
2012,06,01,05,44,12.10
2012,06,01,05,45,12.10
2012,06,01,05,47,12.10
2012,06,01,05,48,12.10
2012,06,01,05,49,12.00
2012,06,01,05,50,12.00
2012,06,01,05,52,12.00
2012,06,01,05,53,12.00
2012,06,01,05,54,11.90
2012,06,01,05,55,11.90
2012,06,01,05,56,11.90
2012,06,01,05,57,11.90
2012,06,01,05,58,11.90
2012,06,01,05,59,11.90
2012,06,01,06,00,11.90
2012,06,01,06,01,11.90
2012,06,01,06,02,11.80
2012,06,01,06,03,11.80
2012,06,01,06,04,11.80
2012,06,01,06,06,11.80
2012,06,01,06,07,11.80
2012,06,01,06,08,11.80
2012,06,01,06,09,11.80
2012,06,01,06,11,11.80
2012,06,01,06,12,11.80
2012,06,01,06,13,11.80
2012,06,01,06,14,11.80
2012,06,01,06,16,11.80
2012,06,01,06,17,11.80
2012,06,01,06,18,11.80
2012,06,01,06,19,11.80
2012,06,01,06,21,11.80
2012,06,01,06,22,11.80
2012,06,01,06,23,11.80
2012,06,01,06,24,11.80
2012,06,01,06,26,11.80
2012,06,01,06,27,11.80
2012,06,01,06,28,11.80
2012,06,01,06,29,11.80
2012,06,01,06,31,11.80
2012,06,01,06,32,11.80
2012,06,01,06,33,11.80
2012,06,01,06,35,11.80
2012,06,01,06,36,11.80
2012,06,01,06,37,11.80
2012,06,01,06,38,11.80
2012,06,01,06,39,11.80
2012,06,01,06,40,11.80
2012,06,01,06,41,11.80
2012,06,01,06,42,11.80
2012,06,01,06,43,11.80
2012,06,01,06,44,11.80
2012,06,01,06,45,11.80
2012,06,01,06,46,11.80
2012,06,01,06,47,11.80
2012,06,01,06,48,11.80
2012,06,01,06,50,11.80
2012,06,01,06,51,11.80
2012,06,01,06,52,11.80
2012,06,01,06,53,11.80
2012,06,01,06,55,11.80
2012,06,01,06,56,11.80
2012,06,01,06,57,11.80
2012,06,01,06,58,11.80
2012,06,01,06,59,11.80
2012,06,01,07,00,11.80
2012,06,01,07,01,11.80
2012,06,01,07,02,11.80
2012,06,01,07,03,11.80
2012,06,01,07,05,11.80
2012,06,01,07,06,11.80
2012,06,01,07,07,11.80
2012,06,01,07,08,11.90
2012,06,01,07,10,11.80
2012,06,01,07,11,11.90
2012,06,01,07,12,11.90
2012,06,01,07,13,11.90
2012,06,01,07,14,11.90
2012,06,01,07,16,11.90
2012,06,01,07,17,11.90
2012,06,01,07,18,11.90
2012,06,01,07,20,11.90
2012,06,01,07,21,11.90
2012,06,01,07,22,11.90
2012,06,01,07,23,11.80
2012,06,01,07,24,11.80
2012,06,01,07,25,11.80
2012,06,01,07,26,11.90
2012,06,01,07,27,11.90
2012,06,01,07,28,11.90
2012,06,01,07,29,11.80
2012,06,01,07,30,11.90
2012,06,01,07,31,11.90
2012,06,01,07,33,11.90
2012,06,01,07,34,11.90
2012,06,01,07,35,11.90
2012,06,01,07,36,11.90
2012,06,01,07,37,11.90
2012,06,01,07,38,11.90
2012,06,01,07,39,12.00
2012,06,01,07,40,12.00
2012,06,01,07,41,12.00
2012,06,01,07,42,12.00
2012,06,01,07,43,12.00
2012,06,01,07,44,12.10
2012,06,01,07,45,12.10
2012,06,01,07,46,12.10
2012,06,01,07,47,12.10
2012,06,01,07,48,12.10
2012,06,01,07,49,12.10
2012,06,01,07,50,12.20
2012,06,01,07,51,12.20
2012,06,01,07,52,12.20
2012,06,01,07,53,12.20
2012,06,01,07,54,12.20
2012,06,01,07,55,12.20
2012,06,01,07,56,12.20
2012,06,01,07,57,12.30
2012,06,01,07,58,12.30
2012,06,01,08,00,12.30
2012,06,01,08,01,12.40
2012,06,01,08,02,12.40
2012,06,01,08,03,12.50
2012,06,01,08,05,12.60
2012,06,01,08,06,12.60
2012,06,01,08,07,12.70
2012,06,01,08,08,12.70
2012,06,01,08,09,12.70
2012,06,01,08,10,12.80
2012,06,01,08,11,12.80
2012,06,01,08,12,12.80
2012,06,01,08,14,12.90
2012,06,01,08,15,13.00
2012,06,01,08,16,13.10
2012,06,01,08,17,13.10
2012,06,01,08,18,13.10
2012,06,01,08,19,13.20
2012,06,01,08,20,13.20
2012,06,01,08,21,13.20
2012,06,01,08,22,13.20
2012,06,01,08,23,13.20
2012,06,01,08,24,13.20
2012,06,01,08,25,13.30
2012,06,01,08,26,13.30
2012,06,01,08,28,13.30
2012,06,01,08,29,13.30
2012,06,01,08,30,13.30
2012,06,01,08,32,13.30
2012,06,01,08,33,13.30
2012,06,01,08,34,13.30
2012,06,01,08,35,13.30
2012,06,01,08,37,13.40
2012,06,01,08,38,13.40
2012,06,01,08,39,13.40
2012,06,01,08,40,13.40
2012,06,01,08,41,13.40
2012,06,01,08,42,13.40
2012,06,01,08,43,13.40
2012,06,01,08,44,13.40
2012,06,01,08,46,13.50
2012,06,01,08,47,13.40
2012,06,01,08,48,13.50
2012,06,01,08,49,13.50
2012,06,01,08,50,13.50
2012,06,01,08,51,13.50
2012,06,01,08,52,13.50
2012,06,01,08,53,13.50
2012,06,01,08,54,13.50
2012,06,01,08,55,13.50
2012,06,01,08,56,13.50
2012,06,01,08,57,13.60
2012,06,01,08,58,13.60
2012,06,01,09,00,13.60
2012,06,01,09,01,13.60
2012,06,01,09,02,13.60
2012,06,01,09,03,13.60
2012,06,01,09,04,13.60
2012,06,01,09,05,13.60
2012,06,01,09,06,13.60
2012,06,01,09,07,13.70
2012,06,01,09,08,13.70
2012,06,01,09,09,13.70
2012,06,01,09,10,13.70
2012,06,01,09,11,13.70
2012,06,01,09,12,13.70
2012,06,01,09,13,13.70
2012,06,01,09,15,13.70
2012,06,01,09,16,13.70
2012,06,01,09,17,13.70
2012,06,01,09,18,13.70
2012,06,01,09,19,13.70
2012,06,01,09,20,13.70
2012,06,01,09,21,13.70
2012,06,01,09,22,13.70
2012,06,01,09,24,13.70
2012,06,01,09,25,13.70
2012,06,01,09,26,13.70
2012,06,01,09,28,13.70
2012,06,01,09,29,13.60
2012,06,01,09,30,13.60
2012,06,01,09,31,13.60
2012,06,01,09,33,13.60
2012,06,01,09,34,13.70
2012,06,01,09,35,13.60
2012,06,01,09,36,13.70
2012,06,01,09,37,13.70
2012,06,01,09,38,13.70
2012,06,01,09,39,13.70
2012,06,01,09,40,13.70
2012,06,01,09,41,13.80
2012,06,01,09,43,13.80
2012,06,01,09,44,13.80
2012,06,01,09,45,13.90
2012,06,01,09,46,13.90
2012,06,01,09,48,13.80
2012,06,01,09,49,13.80
2012,06,01,09,50,13.80
2012,06,01,09,51,13.80
2012,06,01,09,52,13.80
2012,06,01,09,53,13.80
2012,06,01,09,55,13.90
2012,06,01,09,56,13.90
2012,06,01,09,57,14.00
2012,06,01,09,58,14.00
2012,06,01,09,59,14.00
2012,06,01,10,00,14.00
2012,06,01,10,01,14.00
2012,06,01,10,02,14.00
2012,06,01,10,03,14.00
2012,06,01,10,05,14.00
2012,06,01,10,06,14.00
2012,06,01,10,07,13.90
2012,06,01,10,08,13.90
2012,06,01,10,09,13.90
2012,06,01,10,10,13.90
2012,06,01,10,11,13.90
2012,06,01,10,12,13.80
2012,06,01,10,13,13.80
2012,06,01,10,15,13.80
2012,06,01,10,16,13.80
2012,06,01,10,17,13.80
2012,06,01,10,18,13.80
2012,06,01,10,19,13.80
2012,06,01,10,20,13.80
2012,06,01,10,21,13.80
2012,06,01,10,22,13.80
2012,06,01,10,23,13.80
2012,06,01,10,25,13.80
2012,06,01,10,26,13.80
2012,06,01,10,27,13.80
2012,06,01,10,28,13.80
2012,06,01,10,30,13.80
2012,06,01,10,31,13.90
2012,06,01,10,32,13.90
2012,06,01,10,33,13.90
2012,06,01,10,34,13.90
2012,06,01,10,36,13.90
2012,06,01,10,37,13.90
2012,06,01,10,38,14.00
2012,06,01,10,40,14.00
2012,06,01,10,41,14.00
2012,06,01,10,42,14.00
2012,06,01,10,43,14.00
2012,06,01,10,44,14.00
2012,06,01,10,45,14.00
2012,06,01,10,46,14.00
2012,06,01,10,47,14.00
2012,06,01,10,48,14.00
2012,06,01,10,49,14.00
2012,06,01,10,50,14.00
2012,06,01,10,51,14.10
2012,06,01,10,52,14.10
2012,06,01,10,53,14.10
2012,06,01,10,54,14.10
2012,06,01,10,56,14.10
2012,06,01,10,57,14.20
2012,06,01,10,58,14.20
2012,06,01,10,59,14.20
2012,06,01,11,00,14.20
2012,06,01,11,01,14.20
2012,06,01,11,02,14.20
2012,06,01,11,04,14.30
2012,06,01,11,05,14.40
2012,06,01,11,06,14.40
2012,06,01,11,07,14.40
2012,06,01,11,08,14.40
2012,06,01,11,09,14.40
2012,06,01,11,10,14.50
2012,06,01,11,11,14.50
2012,06,01,11,12,14.60
2012,06,01,11,14,14.60
2012,06,01,11,15,14.60
2012,06,01,11,16,14.70
2012,06,01,11,17,14.70
2012,06,01,11,18,14.70
2012,06,01,11,19,14.80
2012,06,01,11,20,14.80
2012,06,01,11,21,14.80
2012,06,01,11,23,14.80
2012,06,01,11,24,14.80
2012,06,01,11,25,14.90
2012,06,01,11,26,14.90
2012,06,01,11,27,14.90
2012,06,01,11,28,15.00
2012,06,01,11,29,15.00
2012,06,01,11,30,15.10
2012,06,01,11,31,15.10
2012,06,01,11,32,15.10
2012,06,01,11,33,15.10
2012,06,01,11,34,15.10
2012,06,01,11,35,15.10
2012,06,01,11,37,15.10
2012,06,01,11,38,15.00
2012,06,01,11,39,14.90
2012,06,01,11,40,14.90
2012,06,01,11,41,14.90
2012,06,01,11,42,14.90
2012,06,01,11,43,14.80
2012,06,01,11,44,14.80
2012,06,01,11,45,14.80
2012,06,01,11,46,14.70
2012,06,01,11,48,14.70
2012,06,01,11,49,14.70
2012,06,01,11,50,14.70
2012,06,01,11,51,14.70
2012,06,01,11,52,14.70
2012,06,01,11,53,14.60
2012,06,01,11,54,14.70
2012,06,01,11,55,14.70
2012,06,01,11,56,14.70
2012,06,01,11,58,14.80
2012,06,01,11,59,14.90
2012,06,01,12,00,14.90
2012,06,01,12,01,14.90
2012,06,01,12,02,14.90
2012,06,01,12,03,15.00
2012,06,01,12,04,15.00
2012,06,01,12,05,15.00
2012,06,01,12,06,15.10
2012,06,01,12,07,15.00
2012,06,01,12,09,15.00
2012,06,01,12,10,15.10
2012,06,01,12,11,15.10
2012,06,01,12,12,15.10
2012,06,01,12,13,15.00
2012,06,01,12,15,15.10
2012,06,01,12,16,15.10
2012,06,01,12,17,15.20
2012,06,01,12,18,15.30
2012,06,01,12,19,15.30
2012,06,01,12,21,15.30
2012,06,01,12,22,15.30
2012,06,01,12,23,15.30
2012,06,01,12,24,15.30
2012,06,01,12,25,15.40
2012,06,01,12,26,15.40
2012,06,01,12,27,15.50
2012,06,01,12,28,15.60
2012,06,01,12,29,15.60
2012,06,01,12,30,15.70
2012,06,01,12,32,15.70
2012,06,01,12,33,15.70
2012,06,01,12,34,15.80
2012,06,01,12,35,15.80
2012,06,01,12,37,15.80
2012,06,01,12,38,15.80
2012,06,01,12,39,15.90
2012,06,01,12,40,16.00
2012,06,01,12,41,16.10
2012,06,01,12,43,16.20
2012,06,01,12,44,16.30
2012,06,01,12,45,16.40
2012,06,01,12,46,16.40
2012,06,01,12,48,16.40
2012,06,01,12,49,16.50
2012,06,01,12,50,16.60
2012,06,01,12,51,16.70
2012,06,01,12,52,16.80
2012,06,01,12,53,16.80
2012,06,01,12,54,17.00
2012,06,01,12,55,17.20
2012,06,01,12,56,17.20
2012,06,01,12,58,17.30
2012,06,01,12,59,17.40
2012,06,01,13,00,17.50
2012,06,01,13,01,17.60
2012,06,01,13,03,17.70
2012,06,01,13,04,17.80
2012,06,01,13,05,17.80
2012,06,01,13,07,17.90
2012,06,01,13,08,18.10
2012,06,01,13,09,18.20
2012,06,01,13,10,18.30
2012,06,01,13,12,18.40
2012,06,01,13,13,18.50
2012,06,01,13,14,18.70
2012,06,01,13,15,18.80
2012,06,01,13,16,18.90
2012,06,01,13,18,18.90
2012,06,01,13,19,18.90
2012,06,01,13,20,18.80
2012,06,01,13,21,18.70
2012,06,01,13,22,18.70
2012,06,01,13,24,18.60
2012,06,01,13,25,18.60
2012,06,01,13,26,18.60
2012,06,01,13,28,18.60
2012,06,01,13,29,18.60
2012,06,01,13,30,18.60
2012,06,01,13,31,18.60
2012,06,01,13,33,18.60
2012,06,01,13,34,18.60
2012,06,01,13,35,18.60
2012,06,01,13,37,18.60
2012,06,01,13,38,18.50
2012,06,01,13,39,18.50
2012,06,01,13,41,18.60
2012,06,01,13,42,18.70
2012,06,01,13,43,18.80
2012,06,01,13,44,18.80
2012,06,01,13,46,18.90
2012,06,01,13,47,18.90
2012,06,01,13,48,19.00
2012,06,01,13,49,19.10
2012,06,01,13,50,19.10
2012,06,01,13,52,18.90
2012,06,01,13,53,18.90
2012,06,01,13,54,18.80
2012,06,01,13,55,18.80
2012,06,01,13,57,18.80
2012,06,01,13,58,18.90
2012,06,01,13,59,18.90
2012,06,01,14,00,18.80
2012,06,01,14,02,18.70
2012,06,01,14,03,18.60
2012,06,01,14,04,18.50
2012,06,01,14,05,18.40
2012,06,01,14,06,18.30
2012,06,01,14,07,18.30
2012,06,01,14,08,18.30
2012,06,01,14,09,18.30
2012,06,01,14,10,18.30
2012,06,01,14,12,18.30
2012,06,01,14,13,18.40
2012,06,01,14,14,18.50
2012,06,01,14,15,18.50
2012,06,01,14,16,18.60
2012,06,01,14,17,18.60
2012,06,01,14,18,18.70
2012,06,01,14,19,18.70
2012,06,01,14,20,18.80
2012,06,01,14,22,18.90
2012,06,01,14,23,19.10
2012,06,01,14,24,19.20
2012,06,01,14,25,19.30
2012,06,01,14,26,19.40
2012,06,01,14,27,19.40
2012,06,01,14,28,19.50
2012,06,01,14,29,19.60
2012,06,01,14,30,19.60
2012,06,01,14,31,19.60
2012,06,01,14,32,19.60
2012,06,01,14,33,19.60
2012,06,01,14,34,19.60
2012,06,01,14,36,19.60
2012,06,01,14,37,19.60
2012,06,01,14,38,19.60
2012,06,01,14,39,19.60
2012,06,01,14,40,19.70
2012,06,01,14,41,19.70
2012,06,01,14,42,19.80
2012,06,01,14,43,19.90
2012,06,01,14,44,20.10
2012,06,01,14,45,20.20
2012,06,01,14,46,20.20
2012,06,01,14,47,20.20
2012,06,01,14,48,20.30
2012,06,01,14,49,20.30
2012,06,01,14,50,20.30
2012,06,01,14,52,20.30
2012,06,01,14,53,20.20
2012,06,01,14,54,20.10
2012,06,01,14,55,20.00
2012,06,01,14,56,19.90
2012,06,01,14,57,19.90
2012,06,01,14,58,19.80
2012,06,01,14,59,19.80
2012,06,01,15,00,19.80
2012,06,01,15,01,19.80
2012,06,01,15,02,19.80
2012,06,01,15,03,19.80
2012,06,01,15,04,19.70
2012,06,01,15,05,19.70
2012,06,01,15,07,19.70
2012,06,01,15,08,19.80
2012,06,01,15,09,19.80
2012,06,01,15,10,19.80
2012,06,01,15,12,19.80
2012,06,01,15,13,19.80
2012,06,01,15,14,19.70
2012,06,01,15,15,19.70
2012,06,01,15,16,19.60
2012,06,01,15,17,19.60
2012,06,01,15,18,19.50
2012,06,01,15,19,19.30
2012,06,01,15,20,19.20
2012,06,01,15,21,19.20
2012,06,01,15,22,19.10
2012,06,01,15,23,19.10
2012,06,01,15,24,19.00
2012,06,01,15,25,18.90
2012,06,01,15,26,18.90
2012,06,01,15,28,18.80
2012,06,01,15,29,18.80
2012,06,01,15,30,18.80
2012,06,01,15,31,18.80
2012,06,01,15,32,18.80
2012,06,01,15,33,18.80
2012,06,01,15,34,18.80
2012,06,01,15,35,18.80
2012,06,01,15,37,18.80
2012,06,01,15,38,18.80
2012,06,01,15,39,18.80
2012,06,01,15,40,18.80
2012,06,01,15,42,18.80
2012,06,01,15,43,18.70
2012,06,01,15,44,18.70
2012,06,01,15,45,18.70
2012,06,01,15,46,18.60
2012,06,01,15,47,18.60
2012,06,01,15,48,18.60
2012,06,01,15,50,18.60
2012,06,01,15,51,18.60
2012,06,01,15,52,18.40
2012,06,01,15,53,18.40
2012,06,01,15,54,18.30
2012,06,01,15,55,18.30
2012,06,01,15,56,18.30
2012,06,01,15,57,18.30
2012,06,01,15,59,18.30
2012,06,01,16,00,18.30
2012,06,01,16,01,18.30
2012,06,01,16,02,18.30
2012,06,01,16,04,18.30
2012,06,01,16,05,18.40
2012,06,01,16,06,18.40
2012,06,01,16,08,18.40
2012,06,01,16,09,18.30
2012,06,01,16,10,18.40
2012,06,01,16,12,18.30
2012,06,01,16,13,18.30
2012,06,01,16,14,18.20
2012,06,01,16,15,18.10
2012,06,01,16,17,18.10
2012,06,01,16,18,18.00
2012,06,01,16,19,18.00
2012,06,01,16,20,18.00
2012,06,01,16,22,18.10
2012,06,01,16,23,18.10
2012,06,01,16,24,18.20
2012,06,01,16,26,18.20
2012,06,01,16,27,18.30
2012,06,01,16,28,18.40
2012,06,01,16,29,18.60
2012,06,01,16,30,18.60
2012,06,01,16,31,18.60
2012,06,01,16,32,18.70
2012,06,01,16,33,18.70
2012,06,01,16,34,18.70
2012,06,01,16,35,18.70
2012,06,01,16,36,18.70
2012,06,01,16,37,18.60
2012,06,01,16,38,18.60
2012,06,01,16,40,18.60
2012,06,01,16,41,18.60
2012,06,01,16,42,18.60
2012,06,01,16,43,18.70
2012,06,01,16,45,18.70
2012,06,01,16,46,18.70
2012,06,01,16,47,18.70
2012,06,01,16,48,18.70
2012,06,01,16,49,18.60
2012,06,01,16,50,18.60
2012,06,01,16,51,18.40
2012,06,01,16,52,18.40
2012,06,01,16,53,18.40
2012,06,01,16,54,18.40
2012,06,01,16,55,18.40
2012,06,01,16,56,18.40
2012,06,01,16,57,18.30
2012,06,01,16,59,18.20
2012,06,01,17,00,18.20
2012,06,01,17,01,18.10
2012,06,01,17,02,18.10
2012,06,01,17,03,18.10
2012,06,01,17,04,18.10
2012,06,01,17,05,18.00
2012,06,01,17,06,18.00
2012,06,01,17,07,18.00
2012,06,01,17,09,17.90
2012,06,01,17,10,17.90
2012,06,01,17,11,17.90
2012,06,01,17,12,17.80
2012,06,01,17,14,17.80
2012,06,01,17,15,17.80
2012,06,01,17,16,17.70
2012,06,01,17,17,17.70
2012,06,01,17,19,17.60
2012,06,01,17,20,17.50
2012,06,01,17,21,17.40
2012,06,01,17,22,17.40
2012,06,01,17,24,17.40
2012,06,01,17,25,17.30
2012,06,01,17,26,17.20
2012,06,01,17,27,17.20
2012,06,01,17,28,17.20
2012,06,01,17,29,17.20
2012,06,01,17,30,17.20
2012,06,01,17,31,17.20
2012,06,01,17,32,17.20
2012,06,01,17,33,17.20
2012,06,01,17,34,17.20
2012,06,01,17,35,17.20
2012,06,01,17,36,17.10
2012,06,01,17,38,17.10
2012,06,01,17,39,17.10
2012,06,01,17,40,17.10
2012,06,01,17,42,17.10
2012,06,01,17,43,17.10
2012,06,01,17,44,17.00
2012,06,01,17,45,17.00
2012,06,01,17,46,16.90
2012,06,01,17,47,16.90
2012,06,01,17,48,16.90
2012,06,01,17,49,16.80
2012,06,01,17,50,16.80
2012,06,01,17,52,16.80
2012,06,01,17,53,16.70
2012,06,01,17,54,16.70
2012,06,01,17,55,16.70
2012,06,01,17,57,16.60
2012,06,01,17,58,16.60
2012,06,01,17,59,16.50
2012,06,01,18,00,16.40
2012,06,01,18,01,16.40
2012,06,01,18,02,16.30
2012,06,01,18,03,16.30
2012,06,01,18,04,16.30
2012,06,01,18,06,16.20
2012,06,01,18,07,16.20
2012,06,01,18,08,16.20
2012,06,01,18,09,16.20
2012,06,01,18,11,16.10
2012,06,01,18,12,16.10
2012,06,01,18,13,16.10
2012,06,01,18,14,16.10
2012,06,01,18,16,16.10
2012,06,01,18,17,16.00
2012,06,01,18,18,15.90
2012,06,01,18,19,15.90
2012,06,01,18,20,15.90
2012,06,01,18,21,15.90
2012,06,01,18,22,15.90
2012,06,01,18,23,15.80
2012,06,01,18,25,15.80
2012,06,01,18,26,15.80
2012,06,01,18,27,15.80
2012,06,01,18,28,15.80
2012,06,01,18,29,15.80
2012,06,01,18,31,15.70
2012,06,01,18,32,15.70
2012,06,01,18,33,15.70
2012,06,01,18,34,15.70
2012,06,01,18,35,15.70
2012,06,01,18,36,15.70
2012,06,01,18,37,15.70
2012,06,01,18,38,15.80
2012,06,01,18,40,15.80
2012,06,01,18,41,15.70
2012,06,01,18,42,15.70
2012,06,01,18,43,15.70
2012,06,01,18,45,15.70
2012,06,01,18,46,15.70
2012,06,01,18,47,15.70
2012,06,01,18,48,15.70
2012,06,01,18,50,15.70
2012,06,01,18,51,15.70
2012,06,01,18,52,15.60
2012,06,01,18,53,15.60
2012,06,01,18,54,15.60
2012,06,01,18,56,15.60
2012,06,01,18,57,15.60
2012,06,01,18,58,15.60
2012,06,01,18,59,15.60
2012,06,01,19,00,15.50
2012,06,01,19,01,15.50
2012,06,01,19,02,15.50
2012,06,01,19,03,15.60
2012,06,01,19,05,15.60
2012,06,01,19,06,15.60
2012,06,01,19,07,15.60
2012,06,01,19,09,15.60
2012,06,01,19,10,15.60
2012,06,01,19,11,15.60
2012,06,01,19,13,15.50
2012,06,01,19,14,15.50
2012,06,01,19,15,15.50
2012,06,01,19,16,15.50
2012,06,01,19,18,15.50
2012,06,01,19,19,15.50
2012,06,01,19,20,15.50
2012,06,01,19,21,15.50
2012,06,01,19,23,15.50
2012,06,01,19,24,15.50
2012,06,01,19,25,15.50
2012,06,01,19,26,15.50
2012,06,01,19,28,15.60
2012,06,01,19,29,15.50
2012,06,01,19,30,15.60
2012,06,01,19,31,15.60
2012,06,01,19,33,15.60
2012,06,01,19,34,15.60
2012,06,01,19,35,15.60
2012,06,01,19,36,15.50
2012,06,01,19,38,15.50
2012,06,01,19,39,15.40
2012,06,01,19,40,15.40
2012,06,01,19,41,15.40
2012,06,01,19,42,15.40
2012,06,01,19,43,15.40
2012,06,01,19,44,15.40
2012,06,01,19,45,15.40
2012,06,01,19,46,15.30
2012,06,01,19,47,15.30
2012,06,01,19,48,15.30
2012,06,01,19,49,15.30
2012,06,01,19,50,15.30
2012,06,01,19,51,15.30
2012,06,01,19,52,15.30
2012,06,01,19,53,15.30
2012,06,01,19,54,15.30
2012,06,01,19,55,15.20
2012,06,01,19,56,15.20
2012,06,01,19,57,15.20
2012,06,01,19,58,15.20
2012,06,01,19,59,15.20
2012,06,01,20,00,15.10
2012,06,01,20,01,15.10